Wind_Speed
13 14 14 15 14 14 15 15 16 16 17 18 20 21 22 22 22 21 21 21 19 19 19 20 20 20 19 22 22 21 20 18 17 16 15 15 15 15 14 12 11 9 7
13 13 14 14 14 14 14 15 15 16 17 18 20 21 21 21 21 21 20 20 19 19 19 19 20 21 21 22 24 23 23 22 20 19 18 17 17 16 16 14 13 11 9
13 13 13 13 13 13 13 14 14 15 16 17 18 19 20 21 21 21 21 20 20 20 20 20 21 22 23 23 25 26 25 24 23 22 21 20 19 19 18 17 15 13 11
12 12 12 12 12 12 13 13 13 14 15 16 17 17 19 19 20 21 21 21 21 21 22 22 22 23 23 24 26 27 28 28 27 25 24 23 22 21 20 19 17 16 14
10 10 10 11 11 11 12 12 13 14 14 15 16 17 18 19 19 20 21 22 22 23 23 23 23 23 24 25 26 28 29 30 30 29 28 26 25 24 23 22 21 19 17
10 10 10 10 10 11 11 11 12 13 14 15 16 17 17 18 19 20 21 22 23 23 23 24 25 25 25 26 26 28 30 32 32 32 31 30 29 27 26 25 24 22 20
11 11 10 10 11 11 11 11 12 12 13 14 15 16 17 18 19 19 20 22 23 23 24 25 26 27 27 27 27 29 30 32 34 34 34 33 32 31 29 28 27 25 23
11 11 11 11 12 12 13 13 13 13 13 14 15 16 17 17 18 19 20 21 22 23 24 26 27 28 28 29 29 30 31 31 33 35 35 35 35 34 33 31 30 28 27
12 12 12 12 13 13 13 14 14 14 14 15 15 16 17 18 18 19 20 21 22 23 24 25 27 28 29 30 30 31 32 33 33 35 36 37 37 37 36 35 33 32 30
13 14 13 14 14 14 15 15 15 16 16 16 16 17 18 19 20 20 21 22 23 24 25 26 26 28 29 30 31 32 33 34 35 35 37 38 39 39 39 39 37 35 33
14 15 15 16 16 17 17 17 17 17 18 18 19 19 20 21 22 22 23 24 24 25 26 27 28 29 30 31 32 33 35 35 36 36 37 38 39 40 41 41 40 39 37
15 16 17 17 18 18 18 19 20 20 20 21 22 22 23 24 24 25 26 26 26 27 28 28 30 30 31 32 33 34 36 37 37 37 37 37 38 40 41 43 42 41 40
16 17 18 19 19 20 21 21 22 22 23 23 24 25 26 27 27 28 29 30 30 31 31 31 32 32 33 33 34 35 37 38 38 39 39 39 39 40 41 42 43 43 43
17 18 19 20 21 22 23 24 24 25 25 26 27 28 29 30 30 31 31 32 33 34 35 35 35 35 35 36 36 36 37 38 39 40 40 40 39 40 41 42 43 43 44
17 19 20 22 23 24 25 26 27 28 28 29 29 30 31 31 32 33 34 35 35 36 37 38 38 38 38 38 39 39 39 40 40 41 42 42 41 41 41 42 43 44 44
19 21 23 24 25 26 27 28 29 30 31 31 31 31 32 32 33 34 35 36 37 37 38 41 41 42 41 41 41 42 42 42 42 43 43 43 43 43 42 43 44 44 44
21 23 25 26 28 29 29 30 32 32 33 33 33 33 33 32 32 33 33 34 35 36 37 39 42 43 44 44 43 44 44 45 45 45 45 45 45 45 44 44 45 45 45
23 25 27 28 29 30 31 32 33 34 34 34 34 34 33 33 32 32 32 33 34 34 35 36 39 41 43 44 44 45 45 46 47 47 47 47 47 47 47 46 45 46 45
26 27 29 30 31 32 33 34 35 35 35 35 35 35 34 33 32 32 32 32 33 33 33 34 36 38 40 42 43 44 45 46 46 47 48 48 48 48 48 48 47 47 46
27 29 31 32 33 34 35 36 36 36 36 36 36 35 34 33 32 32 31 31 31 31 32 32 33 36 38 40 40 42 43 44 46 47 48 49 49 49 49 49 49 48 48
30 31 33 34 35 36 36 36 37 37 37 37 37 36 35 33 33 32 31 31 30 30 31 32 32 34 36 38 39 40 41 42 44 46 47 49 50 50 50 50 50 49 48
32 33 34 36 36 36 36 37 37 37 38 38 37 36 35 34 33 32 31 31 30 30 31 31 31 32 34 36 37 38 40 41 42 45 46 48 50 51 51 51 51 50 50
34 35 36 37 37 37 37 38 38 38 39 38 38 37 35 35 33 32 32 31 31 31 31 30 30 31 32 34 35 37 38 40 41 43 45 45 48 49 51 51 52 52 51
35 36 37 38 37 38 39 39 40 40 40 39 38 37 36 35 34 33 32 32 31 31 31 31 30 31 32 34 35 36 37 38 40 42 44 44 47 48 49 50 51 51 51
37 37 38 38 39 39 40 40 41 41 41 40 39 37 36 35 34 33 32 32 31 32 31 31 31 31 32 33 35 35 36 37 38 41 43 44 46 48 49 50 50 50 51
39 39 40 40 40 40 41 42 42 41 41 40 39 38 36 35 34 33 32 31 31 31 31 31 31 31 32 33 34 35 35 36 37 39 43 44 46 47 48 49 50 50 50
Wind_Direction
300 296 292 290 287 282 278 275 272 270 267 265 263 263 265 266 265 263 262 257 253 250 242 239 237 231 228 225 222 221 220 218 216 214 212 210 207 204 203 202 202 202 201
302 299 295 292 289 285 279 277 275 272 269 267 263 261 262 263 263 261 258 255 253 249 244 240 240 236 233 229 225 224 223 222 220 219 216 214 213 211 210 209 209 208 207
304 301 299 297 294 291 286 281 277 273 269 267 265 263 263 262 261 258 255 253 251 248 246 245 242 240 239 234 229 227 226 225 223 222 221 219 217 216 215 215 214 213 212
307 304 301 299 298 296 294 289 283 278 274 271 268 267 264 262 260 257 254 253 251 250 248 246 245 242 240 238 234 231 228 228 227 225 224 223 221 220 219 219 219 218 217
315 311 307 303 300 299 297 295 291 285 280 276 271 269 267 263 260 258 254 252 251 250 249 247 246 245 242 240 238 234 231 229 229 228 227 226 225 223 222 222 223 222 221
321 319 316 313 311 308 304 299 295 291 286 281 276 272 271 267 262 260 257 253 250 250 249 248 246 244 243 242 239 237 234 232 230 229 228 228 227 227 225 224 225 225 225
328 327 324 321 317 313 309 304 300 295 291 286 281 276 272 269 265 262 259 256 253 251 250 249 248 246 244 243 241 240 237 235 233 231 230 229 229 229 228 227 226 227 227
335 333 329 324 320 316 311 307 302 298 294 290 286 281 276 271 268 265 262 259 257 255 252 251 250 248 245 243 243 241 240 238 234 232 231 230 230 230 230 229 228 228 229
339 337 334 330 325 321 316 311 306 301 296 292 288 285 282 277 272 269 267 264 261 258 254 252 250 248 245 243 242 241 240 239 237 234 233 232 231 230 230 230 230 229 230
341 339 336 332 328 324 319 314 309 305 299 295 290 287 284 281 278 274 270 267 263 260 257 254 250 248 245 244 242 242 241 240 239 238 236 234 233 231 231 231 231 231 231
341 339 338 335 331 326 320 316 312 308 303 298 294 290 286 282 280 278 274 270 267 263 260 256 253 249 247 245 243 242 241 240 239 239 239 237 235 233 232 231 232 231 231
342 340 338 335 332 327 323 318 314 310 305 300 296 292 288 284 280 277 275 272 268 264 261 258 255 252 249 247 245 243 242 241 240 239 239 239 237 236 234 232 232 232 232
341 338 334 332 330 327 324 321 318 314 310 305 300 296 291 286 281 277 274 272 269 266 262 259 257 254 251 248 247 245 243 242 240 240 240 239 238 236 235 234 233 232 232
338 336 334 332 330 329 327 324 321 317 313 309 305 300 296 291 285 280 275 271 268 267 264 261 257 255 253 250 247 246 245 243 242 241 240 239 237 235 234 234 234 233 232
332 333 332 331 330 329 326 325 322 319 315 312 308 304 299 295 289 284 279 273 269 265 264 262 259 256 253 251 249 247 245 243 242 241 240 239 238 236 235 234 234 234 233
327 328 329 329 328 327 325 325 324 322 319 315 312 308 304 299 293 288 283 277 272 266 263 262 260 256 253 251 250 248 245 244 242 241 240 238 238 237 236 235 234 234 234
322 323 324 325 326 325 324 324 323 321 319 317 314 312 308 303 298 293 288 283 276 270 265 262 260 257 255 252 249 248 246 244 243 241 240 238 237 237 236 236 235 235 234
316 317 319 320 322 322 322 322 321 320 319 318 315 313 311 307 301 296 291 286 281 275 269 264 261 259 256 253 250 248 247 245 243 242 241 239 238 237 237 236 236 235 235
313 314 316 318 320 320 320 321 321 320 319 317 315 314 311 308 303 298 293 288 284 279 273 268 264 261 258 255 252 249 247 245 244 243 241 240 239 238 237 236 236 235 234
312 313 315 316 317 319 318 319 319 319 319 318 315 314 311 307 303 298 294 290 285 280 276 272 267 262 259 257 254 250 247 245 243 242 241 240 239 238 237 236 235 234 234
310 311 313 314 315 316 317 318 318 318 318 317 316 314 310 306 302 298 294 290 286 281 277 274 269 265 261 258 255 251 248 246 244 243 241 240 239 237 236 236 235 234 233
309 311 312 313 314 315 316 317 318 318 318 316 315 313 310 305 301 298 294 290 286 282 279 275 272 267 263 260 256 253 249 247 245 243 241 240 239 237 236 235 234 233 232
308 310 311 312 312 313 315 317 318 318 318 317 315 313 309 304 301 298 294 290 286 282 279 276 273 269 265 261 257 254 251 248 245 245 242 239 238 236 236 234 233 232 232
307 309 310 310 311 311 313 315 317 318 318 316 314 312 309 304 300 297 294 290 286 283 280 277 274 270 266 262 259 256 253 250 247 245 243 239 238 235 234 232 232 231 231
306 308 309 310 311 312 313 314 316 317 316 315 313 311 308 304 300 297 294 290 286 283 281 278 274 270 267 264 262 259 255 251 247 245 243 239 237 235 232 231 230 229 228
305 306 307 309 310 311 312 313 315 315 315 314 312 310 307 303 299 297 294 291 287 284 282 279 274 271 268 265 263 260 257 253 249 246 244 240 236 234 231 229 228 227 227
Height
5877 5876 5875 5873 5872 5872 5871 5871 5870 5870 5870 5870 5870 5871 5871 5872 5873 5874 5874 5875 5876 5877 5878 5880 5882 5883 5885 5887 5890 5892 5895 5897 5900 5902 5904 5906 5908 5909 5911 5912 5914 5915 5916
5874 5873 5871 5870 5869 5868 5868 5867 5867 5867 5866 5866 5866 5866 5867 5867 5868 5869 5870 5871 5871 5872 5874 5876 5877 5879 5881 5883 5886 5888 5891 5894 5897 5899 5901 5903 5905 5907 5909 5911 5912 5914 5915
5872 5870 5869 5867 5866 5865 5864 5864 5863 5863 5862 5862 5862 5862 5862 5863 5864 5865 5866 5867 5868 5869 5870 5871 5873 5875 5877 5878 5881 5884 5887 5890 5893 5895 5898 5900 5902 5905 5907 5909 5911 5912 5913
5869 5868 5866 5865 5863 5862 5861 5861 5860 5859 5859 5859 5858 5858 5858 5858 5859 5860 5861 5862 5863 5865 5866 5867 5868 5870 5872 5874 5876 5878 5881 5885 5888 5891 5894 5896 5899 5901 5904 5906 5908 5910 5912
5867 5865 5864 5862 5861 5860 5858 5858 5857 5856 5855 5855 5854 5854 5854 5854 5854 5855 5856 5857 5858 5859 5861 5862 5864 5865 5867 5869 5870 5872 5875 5879 5882 5886 5889 5892 5895 5897 5900 5903 5905 5907 5909
5864 5863 5861 5859 5858 5857 5856 5855 5854 5853 5852 5851 5850 5850 5850 5850 5850 5850 5851 5852 5853 5854 5855 5857 5858 5860 5862 5863 5865 5867 5869 5872 5876 5880 5883 5886 5890 5893 5896 5898 5901 5904 5906
5862 5860 5858 5857 5855 5854 5853 5852 5851 5850 5849 5847 5847 5846 5846 5846 5846 5846 5846 5847 5848 5849 5850 5851 5852 5854 5856 5858 5859 5861 5863 5866 5869 5873 5876 5880 5884 5887 5891 5894 5897 5900 5902
5859 5857 5856 5854 5853 5851 5850 5848 5847 5846 5845 5844 5843 5842 5841 5842 5841 5841 5841 5841 5842 5843 5844 5845 5846 5847 5849 5851 5853 5855 5857 5859 5862 5865 5869 5873 5877 5881 5885 5888 5891 5895 5898
5857 5855 5853 5852 5850 5848 5847 5845 5844 5842 5841 5840 5839 5838 5837 5836 5836 5836 5836 5836 5836 5837 5837 5839 5840 5841 5842 5844 5846 5848 5850 5852 5855 5858 5861 5865 5869 5873 5877 5882 5885 5889 5892
5854 5852 5851 5849 5847 5845 5843 5842 5840 5838 5837 5836 5835 5834 5832 5831 5831 5831 5831 5830 5830 5830 5831 5832 5833 5834 5835 5837 5839 5841 5843 5845 5848 5850 5854 5857 5861 5865 5869 5874 5878 5882 5886
5852 5850 5848 5846 5844 5842 5840 5838 5836 5834 5832 5831 5830 5828 5827 5826 5825 5825 5824 5824 5824 5824 5824 5824 5825 5826 5827 5829 5831 5833 5835 5838 5840 5843 5846 5849 5852 5856 5861 5866 5870 5875 5879
5850 5847 5845 5843 5840 5838 5836 5834 5831 5829 5827 5825 5824 5822 5821 5820 5819 5818 5817 5816 5816 5816 5817 5817 5817 5818 5819 5821 5822 5824 5827 5829 5832 5834 5837 5840 5844 5848 5852 5856 5861 5866 5871
5848 5845 5843 5840 5837 5835 5832 5829 5826 5824 5821 5819 5817 5815 5813 5812 5811 5810 5809 5808 5808 5808 5808 5808 5809 5810 5811 5812 5814 5815 5817 5820 5823 5826 5828 5832 5835 5839 5843 5847 5852 5857 5862
5845 5843 5840 5837 5834 5831 5828 5824 5821 5818 5815 5812 5810 5807 5805 5803 5802 5800 5800 5799 5798 5798 5798 5798 5799 5800 5801 5803 5804 5806 5808 5810 5813 5816 5819 5822 5826 5830 5834 5838 5842 5847 5852
5842 5839 5837 5833 5830 5827 5823 5819 5816 5812 5809 5805 5802 5799 5796 5793 5791 5789 5788 5788 5788 5788 5787 5787 5788 5789 5790 5792 5794 5796 5798 5800 5803 5806 5809 5812 5816 5820 5824 5828 5833 5838 5843
5839 5836 5832 5829 5826 5822 5818 5814 5810 5805 5801 5797 5794 5790 5787 5784 5781 5778 5777 5776 5775 5776 5775 5774 5775 5776 5778 5780 5782 5784 5787 5789 5792 5795 5798 5802 5806 5810 5814 5818 5823 5828 5833
5834 5831 5828 5824 5820 5816 5812 5808 5803 5799 5794 5790 5786 5781 5778 5774 5771 5768 5765 5763 5762 5762 5763 5762 5762 5763 5765 5767 5770 5772 5774 5777 5780 5783 5787 5791 5795 5799 5803 5808 5812 5817 5823
5830 5826 5822 5818 5814 5810 5806 5801 5796 5792 5787 5782 5777 5773 5769 5765 5761 5758 5755 5753 5751 5750 5750 5750 5749 5750 5751 5753 5756 5759 5762 5765 5768 5771 5775 5779 5783 5788 5792 5797 5801 5807 5812
5824 5820 5816 5812 5808 5804 5799 5794 5789 5784 5779 5774 5769 5764 5760 5755 5751 5748 5745 5742 5740 5739 5738 5738 5737 5737 5738 5740 5742 5745 5748 5752 5755 5758 5762 5767 5771 5776 5780 5785 5790 5795 5801
5817 5814 5810 5805 5801 5797 5792 5787 5782 5776 5771 5765 5760 5756 5751 5746 5742 5738 5735 5732 5730 5728 5727 5727 5726 5726 5726 5727 5729 5732 5735 5738 5742 5745 5749 5753 5758 5763 5768 5774 5779 5784 5789
5811 5807 5802 5798 5794 5789 5784 5779 5774 5768 5763 5757 5751 5746 5742 5737 5733 5729 5726 5723 5720 5718 5717 5716 5715 5715 5715 5715 5717 5719 5722 5725 5729 5732 5736 5741 5745 5751 5755 5761 5766 5772 5777
5803 5799 5795 5790 5786 5781 5776 5771 5765 5760 5754 5748 5743 5737 5732 5728 5724 5720 5716 5713 5711 5709 5707 5705 5705 5704 5704 5704 5705 5707 5710 5713 5717 5720 5723 5727 5732 5737 5742 5748 5753 5759 5765
5795 5791 5787 5782 5777 5772 5767 5762 5757 5751 5745 5739 5733 5728 5723 5718 5714 5710 5707 5704 5701 5698 5697 5695 5694 5693 5693 5693 5694 5696 5698 5700 5704 5706 5710 5715 5718 5724 5729 5735 5741 5747 5753
5787 5782 5778 5773 5768 5763 5758 5753 5747 5741 5735 5729 5724 5719 5713 5708 5704 5701 5697 5694 5691 5688 5686 5685 5684 5683 5682 5682 5683 5684 5685 5688 5692 5693 5696 5702 5705 5710 5716 5722 5728 5734 5740
5778 5773 5768 5764 5759 5753 5748 5743 5737 5731 5725 5720 5714 5709 5704 5699 5694 5691 5688 5684 5681 5678 5676 5675 5674 5672 5671 5671 5671 5672 5674 5676 5679 5681 5683 5688 5693 5697 5703 5709 5715 5721 5728
5768 5763 5758 5753 5748 5743 5738 5732 5727 5721 5716 5710 5704 5698 5694 5689 5685 5681 5678 5674 5671 5669 5666 5664 5663 5662 5661 5660 5660 5661 5662 5664 5666 5669 5670 5674 5679 5683 5691 5697 5702 5709 5715